Location: Unspecified
(38.0989°N, 0.6729°W)
Time: 15:03:32
(UTC+01:00)

OTV 4 - Visible Passes

Search period start: 24 March 2017 00:00
Search period end: 03 April 2017 01:00
Orbit: 322 x 354 km, 38.0° (Epoch: 14 January)

Date Brightness Start Highest point End Pass type
(mag) Time Alt. Az. Time Alt. Az. Time Alt. Az.
26 Mar 3.0 06:45:52 10° S 06:47:13 13° SSE 06:48:33 10° ESE visible
27 Mar 1.8 07:05:50 11° SW 07:08:04 27° SSE 07:10:31 10° E visible
28 Mar 3.4 05:54:40 11° ESE 05:54:40 11° ESE 05:54:57 10° ESE visible
28 Mar 0.7 07:26:18 10° WSW 07:29:03 54° SSE 07:31:46 10° E visible
29 Mar 1.9 06:14:40 28° SE 06:14:40 28° SE 06:16:45 10° E visible
30 Mar 0.5 06:34:38 44° SW 06:35:13 58° SSE 06:37:59 10° E visible
31 Mar 0.2 06:54:34 21° W 06:56:18 86° S 06:59:06 10° E visible
01 Apr 3.0 05:43:15 19° E 05:43:15 19° E 05:44:12 10° E visible
01 Apr 0.2 07:14:35 10° W 07:17:24 89° S 07:20:13 10° E visible
02 Apr 1.2 06:03:11 47° E 06:03:11 47° E 06:05:19 10° E visible
